This demonstration page uses our WeatherBlox Daily Observations layout. Learn more.

Left ArrowRight Arrow

36.17497, -115.13722

Hourly Observations for March 24, 2021

Temp ( °F °C ) Dew Point ( °F °C ) Humidity (%) Winds ( mph kmh ) Pressure ( in mb ) Visibility ( mi km ) Precip ( " mm )
12:53 am 00:53 Clear 54 12.2 20 -6.7 26 26 NNW 21 33 29.91 1013 10 16 0.00 0.00
1:53 am 01:53 Clear 54 12.2 20 -6.7 26 26 NW 22 35 29.93 1013 10 16 0.00 0.00
2:53 am 02:53 Clear 53 11.7 20 -6.7 27 27 NW 22 35 29.92 1013 10 16 0.00 0.00
3:53 am 03:53 Clear 52 11.1 19 -7.2 27 27 NNW 21 33 29.92 1013 10 16 0.00 0.00
4:53 am 04:53 Clear 52 11.1 19 -7.2 27 27 NW 18 30 29.93 1013 10 16 0.00 0.00
5:53 am 05:53 Clear 50 10 19 -7.2 29 29 NW 21 33 29.93 1014 10 16 0.00 0.00
6:53 am 06:53 Sunny 50 10 19 -7.2 29 29 NNW 21 33 29.95 1014 10 16 0.00 0.00
7:53 am 07:53 Sunny 53 11.7 18 -7.8 25 25 NW 18 30 29.97 1015 10 16 0.00 0.00
8:53 am 08:53 Sunny 55 12.8 18 -7.8 23 23 NNW 26 43 29.97 1015 10 16 0.00 0.00
9:53 am 09:53 Sunny with Light Rain 57 13.9 18 -7.8 22 22 NW 25 41 29.97 1015 10 16 0.00 0.00
10:53 am 10:53 Sunny 59 15 18 -7.8 20 20 NNW 24 39 29.96 1015 10 16 0.00 0.00
11:53 am 11:53 Sunny 62 16.7 18 -7.8 18 18 NNW 14 22 29.94 1014 10 16 0.00 0.00
12:53 pm 12:53 Sunny 64 17.8 16 -8.9 15 15 NW 15 24 29.90 1013 10 16 0.00 0.00
1:53 pm 13:53 Sunny 64 17.8 15 -9.4 15 15 VRB 3 6 29.87 1012 10 16 0.00 0.00
2:53 pm 14:53 Sunny 66 18.9 13 -10.6 13 13 NNW 3 6 29.83 1010 10 16 0.00 0.00
3:53 pm 15:53 Sunny 66 18.9 11 -11.7 11 11 SSW 5 7 29.81 1010 10 16 0.00 0.00
4:53 pm 16:53 Sunny 68 20 7 -13.9 9 9 N 12 19 29.78 1009 10 16 0.00 0.00
5:53 pm 17:53 Sunny 66 18.9 5 -15 9 9 SSW 6 9 29.78 1008 10 16 0.00 0.00
6:53 pm 18:53 Sunny 65 18.3 6 -14.4 10 10 SSW 5 7 29.77 1008 10 16 0.00 0.00
7:53 pm 19:53 Clear 63 17.2 6 -14.4 10 10 Calm 29.78 1008 10 16 0.00 0.00
8:53 pm 20:53 Clear 63 17.2 9 -12.8 12 12 WSW 8 13 29.78 1009 10 16 0.00 0.00
9:53 pm 21:53 Clear 61 16.1 10 -12.2 13 13 SW 5 7 29.76 1008 10 16 0.00 0.00
10:53 pm 22:53 Clear 58 14.4 12 -11.1 16 16 Calm 29.75 1007 10 16 0.00 0.00
11:53 pm 23:53 Clear 56 13.3 13 -10.6 18 18 NW 3 6 29.74 1007 10 16 0.00 0.00

Powered by AerisWeather